User: anonymous   Login
Location: Unspecified
(0.0000°N, 0.0000°E)
Time: 15:48:26
(UTC+00:00)
Language:

EUTELSAT W3B - Orbit

View from above orbital plane
View from above orbital plane
View from above satellite
View from above satellite

Ground track
Ground track

The orbit data is extracted from the following two-line orbital elements,

1 37206U 10056A   18347.51886023  .00001077  00000-0  36690-3 0  9998
2 37206   2.5112 315.4029 7121384 270.1848  16.1140  2.48235338 70964
Epoch (UTC): 13 December 2018 12:27:09
Eccentricity: 0.7121384
inclination: 2.5112°
perigee height: 254 km
apogee height: 33070 km
right ascension of ascending node: 315.4029°
argument of perigee: 270.1848°
revolutions per day: 2.48235338
mean anomaly at epoch: 16.1140°
orbit number at epoch: 7096

The dashed part of the orbit path shows where the satellite is in the earth's shadow,  

DLR